Cedar, IA

2:59 PM CDT on August 28, 2016 (GMT -0500)
Oskaloosa Municipal

Weather History for KOOA - July, 2013

Change the Weather History Date:

Sunday, July 14, 2013

  Actual Average (KOTM) Record (KOTM)
Temperature  
Mean Temperature 72 °F 75 °F  
Max Temperature 84 °F 86 °F 114 °F (1936)
Min Temperature 60 °F 65 °F 48 °F (1926)
Degree Days  
Heating Degree Days 0 0  
Month to date heating degree days 0  
Since 1 June heating degree days 21  
Since 1 July heating degree days 0  
Cooling Degree Days 7 10  
Month to date cooling degree days 140  
Year to date cooling degree days 405  
Since 1 June cooling degree days 341  
Growing Degree Days 22 (Base 50)    
Moisture  
Dew Point 60 °F    
Average Humidity 66    
Maximum Humidity 89    
Minimum Humidity 40    
Precipitation  
Precipitation 0.00 in 0.15 in 2.32 in (1899)
Month to date precipitation 2.14  
Year to date precipitation 19.76  
Sea Level Pressure  
Sea Level Pressure 30.14 in    
Wind  
Wind Speed 7 mph (ESE)    
Max Wind Speed 13 mph    
Max Gust Speed 20 mph    
Visibility 10 miles    
Events      
T = Trace of Precipitation, MM = Missing Value Source: NWS Daily Summary

Daily Weather History Graph

Daily Weather History Graph

Search for Another Location

Airport or City:

Trip Planner

Search our weather history database for the weather conditions in past years. The results will help you decide how hot, cold, wet, or windy it might be!

Date:

Astronomy

Jul. 14, 2013 Rise Set
Actual Time 5:49 AM CDT 8:41 PM CDT
Civil Twilight 5:16 AM CDT 9:14 PM CDT
Nautical Twilight 4:35 AM CDT 9:55 PM CDT
Astronomical Twilight 3:47 AM CDT 10:43 PM CDT
Moon 12:11 PM CDT (7/14) 11:49 PM CDT (7/14)
Length of Visible Light 15h 57m
Length of Day
14h 52m
Waxing Crescent, 35% of the Moon is Illuminated
Jul 14
Waxing Crescent
Jul 15
First Quarter
Jul 22
Full
Jul 29
Last Quarter
Aug 6
New

Hourly Weather History & Observations

Time (CDT) Temp. Heat Index Dew Point Humidity Pressure Visibility Wind Dir Wind Speed Gust Speed Precip Events Conditions
12:15 AM 65.1 °F - 59.0 °F 81% 30.10 in 10.0 mi SE 6.9 mph - N/A   Clear
12:35 AM 64.4 °F - 59.0 °F 83% 30.10 in 10.0 mi SE 5.8 mph - N/A   Clear
12:55 AM 63.9 °F - 58.5 °F 83% 30.11 in 10.0 mi ESE 6.9 mph - N/A   Clear
1:15 AM 63.3 °F - 58.1 °F 83% 30.11 in 10.0 mi ESE 5.8 mph - N/A   Clear
1:35 AM 62.8 °F - 58.1 °F 85% 30.11 in 10.0 mi ESE 8.1 mph - N/A   Clear
1:55 AM 62.2 °F - 57.7 °F 85% 30.11 in 10.0 mi East 6.9 mph - N/A   Clear
2:15 AM 61.7 °F - 57.4 °F 86% 30.10 in 10.0 mi ESE 8.1 mph - N/A   Clear
2:35 AM 63.5 °F - 58.1 °F 83% 30.10 in 10.0 mi ESE 6.9 mph - N/A   Clear
2:55 AM 61.7 °F - 57.4 °F 86% 30.10 in 10.0 mi East 6.9 mph - N/A   Clear
3:15 AM 61.7 °F - 57.6 °F 86% 30.10 in 10.0 mi East 5.8 mph - N/A   Clear
3:35 AM 61.7 °F - 57.7 °F 87% 30.10 in 10.0 mi ESE 5.8 mph - N/A   Clear
3:55 AM 61.3 °F - 57.7 °F 88% 30.10 in 10.0 mi East 6.9 mph - N/A   Clear
4:15 AM 61.7 °F - 58.1 °F 88% 30.10 in 10.0 mi East 5.8 mph - N/A   Clear
4:35 AM 61.2 °F - 57.7 °F 88% 30.10 in 10.0 mi ESE 5.8 mph - N/A   Clear
4:55 AM 60.8 °F - 57.6 °F 89% 30.10 in 10.0 mi ESE 5.8 mph - N/A   Clear
5:15 AM 61.7 °F - 58.1 °F 88% 30.10 in 10.0 mi East 6.9 mph - N/A   Clear
5:35 AM 61.7 °F - 58.1 °F 88% 30.10 in 10.0 mi East 6.9 mph - N/A   Clear
5:55 AM 61.9 °F - 58.1 °F 87% 30.10 in 10.0 mi East 6.9 mph - N/A   Clear
6:15 AM 61.9 °F - 58.3 °F 88% 30.11 in 10.0 mi East 6.9 mph - N/A   Clear
6:35 AM 61.7 °F - 58.3 °F 89% 30.12 in 7.0 mi East 4.6 mph - N/A   Clear
6:55 AM 62.6 °F - 59.0 °F 88% 30.12 in 7.0 mi Calm Calm - N/A   Clear
7:15 AM 64.4 °F - 59.9 °F 85% 30.13 in 10.0 mi Calm Calm - N/A   Clear
7:35 AM 66.4 °F - 60.4 °F 81% 30.13 in 10.0 mi ESE 3.5 mph - N/A   Clear
7:55 AM 68.0 °F - 61.3 °F 79% 30.14 in 10.0 mi ESE 4.6 mph - N/A   Clear
8:15 AM 70.0 °F - 61.9 °F 75% 30.14 in 10.0 mi ESE 8.1 mph - N/A   Clear
8:35 AM 70.7 °F - 62.6 °F 75% 30.14 in 10.0 mi SE 8.1 mph - N/A   Clear
8:55 AM 72.5 °F - 63.3 °F 73% 30.15 in 10.0 mi SE 8.1 mph - N/A   Clear
9:15 AM 73.4 °F - 63.9 °F 72% 30.15 in 10.0 mi SSE 8.1 mph - N/A   Clear
9:35 AM 74.3 °F - 64.0 °F 70% 30.15 in 10.0 mi SSE 6.9 mph - N/A   Clear
9:55 AM 75.6 °F - 63.7 °F 66% 30.15 in 10.0 mi SSE 6.9 mph - N/A   Clear
10:15 AM 77.4 °F - 63.9 °F 63% 30.15 in 10.0 mi ESE 6.9 mph - N/A   Clear
10:35 AM 78.4 °F - 62.1 °F 57% 30.15 in 10.0 mi South 9.2 mph - N/A   Clear
10:55 AM 79.0 °F - 62.4 °F 57% 30.15 in 10.0 mi SSE 6.9 mph - N/A   Clear
11:15 AM 79.9 °F - 61.9 °F 54% 30.16 in 10.0 mi SSE 8.1 mph - N/A   Clear
11:35 AM 80.2 °F 81.4 °F 62.2 °F 54% 30.17 in 10.0 mi SE 8.1 mph - N/A   Clear
11:55 AM 80.6 °F 81.6 °F 61.3 °F 52% 30.16 in 10.0 mi SSE 6.9 mph - N/A   Clear
12:15 PM 81.3 °F 82.2 °F 61.5 °F 51% 30.16 in 10.0 mi SE 4.6 mph - N/A   Clear
12:35 PM 81.5 °F 82.0 °F 59.9 °F 48% 30.17 in 10.0 mi SE 4.6 mph - N/A   Clear
12:55 PM 82.4 °F 82.6 °F 59.5 °F 46% 30.16 in 10.0 mi SSE 9.2 mph - N/A   Clear
1:15 PM 82.6 °F 83.1 °F 61.2 °F 48% 30.15 in 10.0 mi SE 5.8 mph - N/A   Clear
1:35 PM 81.3 °F 81.9 °F 60.6 °F 49% 30.15 in 10.0 mi SSE 12.7 mph - N/A   Scattered Clouds
1:55 PM 82.8 °F 83.1 °F 60.6 °F 47% 30.15 in 10.0 mi SSE 8.1 mph - N/A   Scattered Clouds
2:15 PM 83.5 °F 83.7 °F 60.4 °F 46% 30.15 in 10.0 mi ESE 11.5 mph - N/A   Clear
2:35 PM 83.3 °F 83.4 °F 60.1 °F 45% 30.14 in 10.0 mi SSE 6.9 mph 16.1 mph N/A   Scattered Clouds
2:55 PM 83.5 °F 83.2 °F 58.8 °F 43% 30.14 in 10.0 mi SE 8.1 mph - N/A   Clear
3:15 PM 83.7 °F 83.6 °F 59.4 °F 44% 30.14 in 10.0 mi SE 10.4 mph 17.3 mph N/A   Clear
3:35 PM 84.2 °F 84.0 °F 59.7 °F 43% 30.14 in 10.0 mi SE 10.4 mph 17.3 mph N/A   Clear
3:55 PM 84.6 °F 84.2 °F 58.8 °F 42% 30.14 in 10.0 mi SE 6.9 mph 16.1 mph N/A   Clear
4:15 PM 84.4 °F 83.8 °F 58.5 °F 41% 30.14 in 10.0 mi SE 12.7 mph - N/A   Clear
4:35 PM 84.6 °F 84.2 °F 59.0 °F 42% 30.13 in 10.0 mi SE 10.4 mph 17.3 mph N/A   Clear
4:55 PM 84.0 °F 83.3 °F 57.0 °F 40% 30.13 in 10.0 mi SE 11.5 mph - N/A   Clear
5:15 PM 84.2 °F 83.8 °F 58.8 °F 42% 30.13 in 10.0 mi SE 8.1 mph 17.3 mph N/A   Clear
5:35 PM 83.8 °F 83.1 °F 57.2 °F 40% 30.12 in 10.0 mi SSE 11.5 mph 19.6 mph N/A   Clear
5:55 PM 83.7 °F 83.1 °F 57.7 °F 41% 30.12 in 10.0 mi SSE 10.4 mph 16.1 mph N/A   Clear
6:15 PM 83.3 °F 82.9 °F 58.3 °F 42% 30.12 in 10.0 mi ESE 8.1 mph - N/A   Clear
6:35 PM 82.8 °F 82.7 °F 59.0 °F 44% 30.13 in 10.0 mi SE 10.4 mph 17.3 mph N/A   Clear
6:55 PM 82.4 °F 82.2 °F 57.9 °F 43% 30.13 in 10.0 mi SE 11.5 mph - N/A   Clear
7:15 PM 81.7 °F 81.9 °F 59.0 °F 46% 30.13 in 10.0 mi ESE 9.2 mph - N/A   Clear
7:35 PM 80.8 °F 81.4 °F 59.7 °F 49% 30.13 in 10.0 mi SE 8.1 mph - N/A   Clear
7:55 PM 79.7 °F - 60.1 °F 51% 30.14 in 10.0 mi SE 8.1 mph - N/A   Clear
8:15 PM 78.1 °F - 61.2 °F 56% 30.15 in 10.0 mi ESE 3.5 mph - N/A   Clear
8:35 PM 75.9 °F - 61.5 °F 61% 30.15 in 10.0 mi ESE 5.8 mph - N/A   Clear
8:55 PM 74.7 °F - 60.8 °F 62% 30.15 in 10.0 mi ESE 4.6 mph - N/A   Clear
9:15 PM 72.7 °F - 61.0 °F 67% 30.16 in 10.0 mi ESE 4.6 mph - N/A   Clear
9:35 PM 71.2 °F - 60.8 °F 69% 30.17 in 10.0 mi East 5.8 mph - N/A   Clear
9:55 PM 70.7 °F - 61.0 °F 71% 30.17 in 10.0 mi East 4.6 mph - N/A   Clear
10:15 PM 69.8 °F - 60.8 °F 73% 30.18 in 10.0 mi East 4.6 mph - N/A   Clear
10:35 PM 69.6 °F - 60.8 °F 73% 30.18 in 10.0 mi East 5.8 mph - N/A   Clear
10:55 PM 69.4 °F - 60.8 °F 74% 30.19 in 10.0 mi East 4.6 mph - N/A   Clear
11:15 PM 69.1 °F - 61.0 °F 75% 30.19 in 10.0 mi East 5.8 mph - N/A   Clear
11:35 PM 68.9 °F - 61.0 °F 76% 30.19 in 10.0 mi East 4.6 mph - N/A   Clear
11:55 PM 68.5 °F - 61.0 °F 77% 30.19 in 10.0 mi ENE 5.8 mph - N/A   Clear